Location: Moydans
(44.3997°N, 5.5038°E)
Time: 03:39:49
(UTC+02:00)

Envisat - Pass Details

Date: 02 October 2021
Orbit: 764 x 766 km, 98.2° (Epoch: 17 October)

Event Time Altitude Azimuth Distance (km) Brightness Sun altitude
Rises 06:36:21 0° 16° (NNE) 3,239 6.6 -11.7°
Reaches altitude 10° 06:38:41 10° 19° (NNE) 2,309 5.8 -11.2°
Maximum altitude 06:43:44 64° 101° (E) 849 3.5 -10.3°
Drops below altitude 10° 06:48:45 10° 183° (S) 2,292 5.4 -9.5°
Sets 06:51:04 0° 186° (S) 3,213 6.1 -9.0°
